| time (UTC) | temp F | wind direction | speed MPH | gust MPH | rain 1hr in | rain 24hr in | rain mn in | humidity % | barometer mb |
| 20260509081504 | 52 | 307 | 0.0 | 1.0 | 0.00 | 0.06 | 0.00 | 91 | 1005.7 |
| 20260509080003 | 51 | 307 | 1.0 | 3.0 | 0.00 | 0.06 | 0.00 | 92 | 1005.7 |
| 20260509074502 | 51 | 307 | 0.0 | 2.0 | 0.00 | 0.06 | 0.00 | 91 | 1005.7 |
| 20260509073005 | 51 | 307 | 0.0 | 1.0 | 0.00 | 0.06 | 0.00 | 90 | 1005.9 |
| 20260509071500 | 51 | 307 | 0.0 | 2.0 | 0.00 | 0.06 | 0.00 | 90 | 1005.8 |
| 20260509070100 | 51 | 307 | 0.0 | 1.0 | 0.00 | 0.06 | 0.00 | 90 | 1005.8 |
| 20260509064600 | 51 | 307 | 0.0 | 0.0 | 0.00 | 0.06 | 0.00 | 90 | 1005.8 |
| 20260509063102 | 52 | 307 | 0.0 | 1.0 | 0.00 | 0.06 | 0.00 | 90 | 1006.1 |
| 20260509061553 | 52 | 307 | 0.0 | 0.0 | 0.00 | 0.06 | 0.00 | 90 | 1006.1 |
| 20260509060108 | 53 | 307 | 1.0 | 2.0 | 0.00 | 0.06 | 0.00 | 90 | 1006.3 |
| 20260509054552 | 53 | 307 | 0.0 | 3.0 | 0.00 | 0.06 | 0.00 | 90 | 1006.3 |
| 20260509053059 | 53 | 307 | 0.0 | 3.0 | 0.00 | 0.06 | 0.00 | 90 | 1006.4 |
| 20260509051548 | 53 | 307 | 0.0 | 0.0 | 0.00 | 0.06 | 0.00 | 89 | 1006.5 |
| 20260509050044 | 53 | 307 | 0.0 | 2.0 | 0.00 | 0.06 | 0.00 | 89 | 1006.7 |
| 20260509044543 | 53 | 307 | 1.0 | 3.0 | 0.00 | 0.06 | 0.06 | 89 | 1006.7 |
| 20260509043051 | 53 | 307 | 0.0 | 0.0 | 0.00 | 0.06 | 0.06 | 88 | 1006.8 |
| 20260509041542 | 54 | 307 | 0.0 | 0.0 | 0.00 | 0.06 | 0.06 | 87 | 1006.8 |
| 20260509040057 | 54 | 307 | 0.0 | 0.0 | 0.00 | 0.06 | 0.06 | 87 | 1006.9 |
| 20260509034540 | 54 | 307 | 0.0 | 0.0 | 0.00 | 0.06 | 0.06 | 87 | 1007.0 |
| 20260509033101 | 55 | 307 | 0.0 | 0.0 | 0.00 | 0.06 | 0.06 | 87 | 1007.0 |
| 20260509031539 | 55 | 307 | 0.0 | 0.0 | 0.00 | 0.06 | 0.06 | 87 | 1006.8 |
| 20260509030039 | 55 | 307 | 0.0 | 0.0 | 0.00 | 0.06 | 0.06 | 86 | 1006.8 |
| 20260509024542 | 56 | 307 | 0.0 | 0.0 | 0.00 | 0.06 | 0.06 | 86 | 1006.8 |
| 20260509023038 | 56 | 307 | 0.0 | 0.0 | 0.00 | 0.06 | 0.06 | 85 | 1006.9 |
| 20260509021537 | 57 | 307 | 0.0 | 0.0 | 0.00 | 0.06 | 0.06 | 85 | 1006.6 |
| 20260509020036 | 58 | 307 | 0.0 | 0.0 | 0.00 | 0.06 | 0.06 | 86 | 1006.4 |
| 20260509014536 | 58 | 307 | 0.0 | 0.0 | 0.00 | 0.06 | 0.06 | 86 | 1006.0 |
| 20260509013035 | 59 | 307 | 0.0 | 0.0 | 0.00 | 0.06 | 0.06 | 85 | 1005.7 |
| 20260509011534 | 60 | 307 | 0.0 | 0.0 | 0.00 | 0.06 | 0.06 | 85 | 1005.7 |
| 20260509010037 | 61 | 307 | 0.0 | 0.0 | 0.00 | 0.06 | 0.06 | 86 | 1005.5 |
| 20260509004531 | 61 | 307 | 0.0 | 0.0 | 0.00 | 0.06 | 0.06 | 87 | 1005.8 |
| 20260509003034 | 60 | 307 | 0.0 | 2.0 | 0.00 | 0.06 | 0.06 | 86 | 1005.7 |
| 20260509001530 | 60 | 307 | 0.0 | 0.0 | 0.00 | 0.06 | 0.06 | 85 | 1005.4 |
| 20260509000028 | 60 | 307 | 0.0 | 0.0 | 0.00 | 0.06 | 0.06 | 85 | 1005.4 |
| 20260508234530 | 60 | 307 | 0.0 | 5.0 | 0.01 | 0.06 | 0.06 | 85 | 1005.7 |
| 20260508233032 | 60 | 321 | 0.0 | 3.0 | 0.02 | 0.06 | 0.06 | 84 | 1005.7 |
| 20260508231525 | 61 | 342 | 1.0 | 4.0 | 0.04 | 0.06 | 0.06 | 85 | 1005.4 |
| 20260508230022 | 61 | 225 | 1.0 | 5.0 | 0.06 | 0.06 | 0.06 | 84 | 1005.2 |
| 20260508224522 | 61 | 227 | 1.0 | 3.0 | 0.05 | 0.05 | 0.05 | 82 | 1005.9 |
| 20260508223016 | 61 | 246 | 0.0 | 3.0 | 0.04 | 0.04 | 0.04 | 81 | 1006.4 |
| 20260508221514 | 62 | 246 | 0.0 | 3.0 | 0.02 | 0.02 | 0.02 | 79 | 1006.6 |
| 20260508220013 | 62 | 246 | 0.0 | 3.0 | 0.00 | 0.00 | 0.00 | 79 | 1006.7 |
| 20260508214523 | 63 | 246 | 0.0 | 2.0 | 0.00 | 0.00 | 0.00 | 77 | 1006.7 |
| 20260508213013 | 63 | 246 | 1.0 | 3.0 | 0.00 | 0.00 | 0.00 | 77 | 1006.7 |
| 20260508211516 | 63 | 246 | 0.0 | 1.0 | 0.00 | 0.00 | 0.00 | 76 | 1006.6 |
| 20260508210021 | 63 | 246 | 1.0 | 3.0 | 0.00 | 0.00 | 0.00 | 75 | 1006.9 |
| 20260508204510 | 64 | 277 | 1.0 | 3.0 | 0.00 | 0.00 | 0.00 | 74 | 1006.8 |
| 20260508203009 | 64 | 275 | 0.0 | 3.0 | 0.00 | 0.00 | 0.00 | 71 | 1007.1 |
| 20260508201508 | 64 | 275 | 1.0 | 4.0 | 0.00 | 0.00 | 0.00 | 68 | 1007.2 |
| 20260508200008 | 64 | 276 | 2.0 | 6.0 | 0.00 | 0.00 | 0.00 | 69 | 1007.5 |
| 20260508194508 | 64 | 273 | 3.0 | 8.0 | 0.00 | 0.00 | 0.00 | 69 | 1007.7 |
| 20260508193005 | 64 | 253 | 1.0 | 4.0 | 0.00 | 0.00 | 0.00 | 70 | 1007.8 |
| 20260508191505 | 64 | 252 | 1.0 | 3.0 | 0.00 | 0.00 | 0.00 | 68 | 1007.3 |
| 20260508190004 | 63 | 290 | 3.0 | 5.0 | 0.00 | 0.00 | 0.00 | 68 | 1007.6 |
| 20260508184502 | 63 | 281 | 3.0 | 8.0 | 0.00 | 0.00 | 0.00 | 68 | 1007.9 |
| 20260508183002 | 63 | 254 | 6.0 | 10.0 | 0.00 | 0.00 | 0.00 | 67 | 1008.3 |
| 20260508181502 | 64 | 182 | 5.0 | 12.0 | 0.00 | 0.00 | 0.00 | 66 | 1008.5 |
| 20260508180002 | 64 | 255 | 3.0 | 11.0 | 0.00 | 0.00 | 0.00 | 67 | 1008.3 |
| 20260508174501 | 64 | 229 | 4.0 | 12.0 | 0.00 | 0.00 | 0.00 | 65 | 1008.0 |
| 20260508173058 | 64 | 269 | 2.0 | 7.0 | 0.00 | 0.00 | 0.00 | 70 | 1007.2 |
| 20260508171554 | 62 | 192 | 1.0 | 4.0 | 0.00 | 0.00 | 0.00 | 70 | 1007.5 |
| 20260508170058 | 62 | 279 | 4.0 | 10.0 | 0.00 | 0.00 | 0.00 | 69 | 1008.7 |
| 20260508164551 | 62 | 264 | 3.0 | 10.0 | 0.00 | 0.00 | 0.00 | 68 | 1008.9 |
| 20260508163100 | 62 | 260 | 6.0 | 11.0 | 0.00 | 0.00 | 0.00 | 69 | 1008.7 |
| 20260508161554 | 61 | 251 | 3.0 | 9.0 | 0.00 | 0.00 | 0.00 | 72 | 1009.2 |
| 20260508160042 | 60 | 249 | 3.0 | 9.0 | 0.00 | 0.00 | 0.00 | 73 | 1008.9 |
| 20260508154538 | 59 | 253 | 3.0 | 9.0 | 0.00 | 0.00 | 0.00 | 76 | 1009.0 |
| 20260508153052 | 58 | 250 | 4.0 | 9.0 | 0.00 | 0.00 | 0.00 | 76 | 1008.9 |
| 20260508151535 | 58 | 254 | 3.0 | 9.0 | 0.00 | 0.00 | 0.00 | 77 | 1008.8 |
| 20260508150033 | 58 | 235 | 1.0 | 8.0 | 0.00 | 0.00 | 0.00 | 78 | 1008.3 |
| 20260508144532 | 57 | 263 | 3.0 | 9.0 | 0.00 | 0.00 | 0.00 | 80 | 1008.9 |
| 20260508143050 | 56 | 249 | 2.0 | 7.0 | 0.00 | 0.00 | 0.00 | 83 | 1009.2 |
| 20260508141531 | 55 | 234 | 1.0 | 5.0 | 0.00 | 0.00 | 0.00 | 83 | 1009.3 |
| 20260508140028 | 54 | 234 | 0.0 | 3.0 | 0.00 | 0.00 | 0.00 | 84 | 1009.3 |
| 20260508134534 | 54 | 234 | 1.0 | 3.0 | 0.00 | 0.00 | 0.00 | 84 | 1009.3 |
| 20260508133028 | 53 | 234 | 1.0 | 3.0 | 0.00 | 0.00 | 0.00 | 84 | 1009.5 |
| 20260508131527 | 53 | 227 | 1.0 | 5.0 | 0.00 | 0.00 | 0.00 | 85 | 1009.5 |
| 20260508130026 | 52 | 228 | 0.0 | 2.0 | 0.00 | 0.00 | 0.00 | 86 | 1009.1 |
| 20260508124529 | 51 | 228 | 0.0 | 2.0 | 0.00 | 0.00 | 0.00 | 86 | 1009.1 |
| 20260508123028 | 50 | 228 | 0.0 | 2.0 | 0.00 | 0.00 | 0.00 | 86 | 1009.0 |
| 20260508121525 | 50 | 228 | 1.0 | 3.0 | 0.00 | 0.00 | 0.00 | 86 | 1009.0 |
| 20260508120023 | 49 | 232 | 1.0 | 3.0 | 0.00 | 0.00 | 0.00 | 85 | 1008.9 |
| 20260508114524 | 49 | 232 | 0.0 | 0.0 | 0.00 | 0.00 | 0.00 | 85 | 1009.0 |
| 20260508113023 | 49 | 232 | 0.0 | 0.0 | 0.00 | 0.00 | 0.00 | 84 | 1008.9 |
| 20260508111522 | 49 | 232 | 0.0 | 0.0 | 0.00 | 0.00 | 0.00 | 84 | 1008.7 |
| 20260508110029 | 49 | 232 | 0.0 | 0.0 | 0.00 | 0.00 | 0.00 | 82 | 1008.6 |
| 20260508104519 | 49 | 232 | 0.0 | 0.0 | 0.00 | 0.00 | 0.00 | 81 | 1008.8 |
| 20260508103035 | 49 | 232 | 0.0 | 0.0 | 0.00 | 0.00 | 0.00 | 81 | 1008.5 |
| 20260508101517 | 50 | 232 | 0.0 | 0.0 | 0.00 | 0.00 | 0.00 | 79 | 1008.6 |
| 20260508100016 | 50 | 232 | 0.0 | 0.0 | 0.00 | 0.00 | 0.00 | 78 | 1008.5 |
| 20260508094512 | 51 | 232 | 0.0 | 0.0 | 0.00 | 0.00 | 0.00 | 77 | 1008.5 |
| 20260508093011 | 51 | 232 | 0.0 | 0.0 | 0.00 | 0.00 | 0.00 | 77 | 1008.6 |
| 20260508091513 | 52 | 232 | 0.0 | 0.0 | 0.00 | 0.00 | 0.00 | 76 | 1008.5 |
| 20260508090007 | 52 | 232 | 0.0 | 0.0 | 0.00 | 0.00 | 0.00 | 75 | 1008.5 |
| 20260508084505 | 53 | 232 | 0.0 | 0.0 | 0.00 | 0.00 | 0.00 | 74 | 1008.3 |
| 20260508083003 | 53 | 232 | 0.0 | 2.0 | 0.00 | 0.00 | 0.00 | 73 | 1008.5 |